Saint Simons Island, GA

12:04 AM EST on December 10, 2019 (GMT -0500)
McKinnon

Weather History for KSSI - October, 2019

Change the Weather History Date:

Sunday, October 27, 2019

  Actual Average Record
Temperature  
Mean Temperature 80 °F 67 °F  
Max Temperature 85 °F 75 °F 85 °F (2019)
Min Temperature 74 °F 59 °F 39 °F (1962)
Degree Days  
Heating Degree Days 0 2  
Month to date heating degree days 0 21  
Since 1 July heating degree days 0 21  
Cooling Degree Days 15 4  
Month to date cooling degree days 306 176  
Year to date cooling degree days 3293 2547  
Growing Degree Days 30 (Base 50)    
Moisture  
Dew Point 73 °F    
Average Humidity 81    
Maximum Humidity 88    
Minimum Humidity 74    
Precipitation  
Precipitation 0.05 in 0.09 in 5.02 in (1997)
Month to date precipitation 5.23 4.09  
Year to date precipitation 32.33 39.96  
Snow  
Snow 0.00 in - 0.00 in ()
Month to date snowfall 0.0  
Since 1 July snowfall 0.0  
Since 1 September snowfall 0.0  
Snow Depth 0.00 in    
Sea Level Pressure  
Sea Level Pressure 29.94 in    
Wind  
Wind Speed 6 mph (SSW)    
Max Wind Speed 14 mph    
Max Gust Speed 21 mph    
Visibility 10 miles    
Events Rain    
T = Trace of Precipitation, MM = Missing Value Source: NWS Daily Summary

Daily Weather History Graph

Daily Weather History Graph

Search for Another Location

Airport or City:

Astronomy

Oct. 27, 2019 Rise Set
Actual Time 7:36 AM EDT 6:41 PM EDT
Civil Twilight 7:12 AM EDT 7:06 PM EDT
Nautical Twilight 6:43 AM EDT 7:34 PM EDT
Astronomical Twilight 6:15 AM EDT 8:02 PM EDT
Moon 6:50 AM EDT (10/27) 6:45 PM EDT (10/27)
Length of Visible Light 11h 54m
Length of Day
11h 04m
Waning Crescent, 0% of the Moon is Illuminated
Oct 27
Waning Crescent
Oct 27
New
Nov 4
First Quarter
Nov 12
Full
Nov 19
Last Quarter

Hourly Weather History & Observations

Time (EDT) Temp. Heat Index Dew Point Humidity Pressure Visibility Wind Dir Wind Speed Gust Speed Precip Events Conditions
12:53 AM 77.0 °F - 73.0 °F 88% 29.92 in 10.0 mi South 9.2 mph - N/A   Partly Cloudy
1:53 AM 77.0 °F - 73.0 °F 88% 29.92 in 10.0 mi South 9.2 mph - N/A   Clear
2:53 AM 77.0 °F - 72.0 °F 84% 29.91 in 10.0 mi Variable 4.6 mph - N/A   Clear
3:35 AM 75.9 °F - 72.0 °F 87% 29.90 in 10.0 mi SSW 6.9 mph - N/A   Mostly Cloudy
3:53 AM 75.9 °F - 72.0 °F 87% 29.90 in 10.0 mi SSW 4.6 mph - N/A   Overcast
4:48 AM 75.2 °F - 71.6 °F 89% 29.89 in 10.0 mi SSW 3.5 mph - N/A   Overcast
4:53 AM 75.9 °F - 72.0 °F 87% 29.90 in 10.0 mi South 5.8 mph - N/A   Overcast
5:53 AM 75.9 °F - 72.0 °F 87% 29.91 in 10.0 mi SSW 8.1 mph - N/A   Overcast
6:45 AM 75.9 °F - 72.0 °F 87% 29.91 in 10.0 mi SSW 6.9 mph - N/A   Overcast
6:53 AM 75.9 °F - 72.0 °F 87% 29.92 in 10.0 mi SSW 9.2 mph - N/A   Overcast
7:14 AM 75.9 °F - 72.0 °F 87% 29.92 in 10.0 mi SSW 10.4 mph - N/A   Scattered Clouds
7:53 AM 75.9 °F - 72.0 °F 87% 29.93 in 10.0 mi SSW 8.1 mph - N/A   Mostly Cloudy
8:17 AM 77.0 °F - 72.0 °F 84% 29.93 in 10.0 mi SSW 8.1 mph - N/A   Scattered Clouds
8:53 AM 78.1 °F - 72.0 °F 81% 29.95 in 10.0 mi SSW 9.2 mph 17.3 mph N/A   Clear
9:53 AM 79.0 °F - 73.0 °F 82% 29.96 in 10.0 mi SW 12.7 mph - N/A   Clear
10:45 AM 79.0 °F - 73.0 °F 82% 29.97 in 10.0 mi SW 10.4 mph - N/A Rain Light Rain
10:53 AM 79.0 °F - 73.0 °F 82% 29.97 in 10.0 mi SW 9.2 mph - N/A Rain Light Rain
11:26 AM 79.0 °F - 73.9 °F 84% 29.98 in 10.0 mi SW 8.1 mph - N/A   Scattered Clouds
11:37 AM 80.1 °F 85.1 °F 75.0 °F 85% 29.98 in 10.0 mi SW 9.2 mph - N/A   Mostly Cloudy
11:53 AM 80.1 °F 84.5 °F 73.9 °F 81% 29.99 in 10.0 mi SSW 11.5 mph - N/A   Overcast
12:39 PM 80.1 °F 84.5 °F 73.9 °F 81% 29.96 in 10.0 mi SW 9.2 mph - N/A   Overcast
12:49 PM 80.6 °F 85.4 °F 73.4 °F 79% 29.96 in 10.0 mi SW 8.1 mph - N/A   Overcast
12:53 PM 81.0 °F 86.7 °F 75.0 °F 82% 29.96 in 10.0 mi SW 8.1 mph - N/A   Overcast
1:11 PM 81.0 °F 86.2 °F 73.9 °F 79% 29.96 in 10.0 mi SW 9.2 mph - N/A   Mostly Cloudy
1:43 PM 82.0 °F 87.9 °F 73.9 °F 76% 29.94 in 10.0 mi SW 10.4 mph - N/A   Overcast
1:53 PM 82.0 °F 87.9 °F 73.9 °F 76% 29.94 in 10.0 mi SW 9.2 mph - N/A Rain Light Rain
2:18 PM 82.9 °F 89.4 °F 73.9 °F 74% 29.93 in 10.0 mi SW 10.4 mph - N/A   Overcast
2:28 PM 84.0 °F 90.2 °F 73.0 °F 69% 29.93 in 10.0 mi SW 12.7 mph - N/A   Scattered Clouds
2:53 PM 84.0 °F 90.2 °F 73.0 °F 69% 29.93 in 10.0 mi WSW 9.2 mph - N/A   Mostly Cloudy
3:53 PM 81.0 °F 86.7 °F 75.0 °F 82% 29.93 in 10.0 mi SW 9.2 mph - N/A   Overcast
4:53 PM 84.0 °F 91.2 °F 73.9 °F 72% 29.93 in 10.0 mi SW 8.1 mph - 0.00 in Rain Light Rain
5:53 PM 82.0 °F 87.4 °F 73.0 °F 74% 29.94 in 10.0 mi SSW 6.9 mph - 0.00 in   Partly Cloudy
6:53 PM 81.0 °F 85.8 °F 73.0 °F 77% 29.95 in 10.0 mi SSW 5.8 mph - N/A   Clear
7:53 PM 78.1 °F - 73.9 °F 87% 29.96 in 10.0 mi South 3.5 mph - N/A   Clear
8:53 PM 77.0 °F - 73.0 °F 88% 29.98 in 10.0 mi Calm Calm - N/A   Clear
9:53 PM 75.9 °F - 72.0 °F 87% 29.99 in 10.0 mi Calm Calm - 0.00 in   Scattered Clouds
10:53 PM 77.0 °F - 73.0 °F 88% 30.00 in 10.0 mi Calm Calm - 0.00 in   Partly Cloudy
11:53 PM 75.0 °F - 72.0 °F 90% 30.00 in 10.0 mi Calm Calm - N/A   Clear